(238811) = 2005 NO20 = 2007 AJ2

Discovered at Siding Spring on 2005-07-06 by Siding Spring Survey.

Orbit

Orbit type: Hungaria

Note: WebGL enabled browser required.

epoch2023-02-25.0
epoch JD2460000.5
perihelion date2020-11-19.20259
perihelion JD2459172.70259
argument of perihelion (°)243.66877
ascending node (°)301.38041
inclination (°)17.63696
eccentricity0.0788711
perihelion distance (AU)1.7769221
Tisserand w.r.t. Jupiter3.9
ΔV w.r.t. Earth (km/sec)9.9
semimajor axis (AU)1.9290698
mean anomaly (°)304.51311
mean daily motion (°/day)0.36785950
aphelion distance (AU)2.081
period (years)2.68
P-vector [x]-0.96015396
P-vector [y]0.04739393
P-vector [z]-0.27542364
Q-vector [x]0.10581043
Q-vector [y]-0.85050305
Q-vector [z]-0.51521716
absolute magnitude17.1
phase slope0.15
uncertainty0
referenceMPO 729927
observations used549
oppositions12
arc length (days)8774
first opposition used1999
last opposition used2023
residual rms (arc-secs)0.69
perturbers coarse indicatorM-v
perturbers precise indicator003Ek
first observation date used1999-01-17.0
last observation date used2023-01-25.0
computer nameMPCLINUX
JD of orbit computation2456966.823325
perihelion JD uncertainty (days)1.9263E-04
argument of perihelion uncertainty (°)6.5413E-05
ascending node uncertainty (°)1.1198E-05
inclination uncertainty (°)8.9879E-06
eccentricity uncertainty 5.8660E-08
perihelion distance uncertainty (AU)1.1857E-07
Minimum Orbit Intersection Distances (in AU)
for orbit epoch: 2460000.5, reference: E2023-BC6
Mercury1.38129
Venus1.10586
Earth0.83535
Mars0.22074
Jupiter3.0024
Saturn7.16714
Uranus16.6915
Neptune27.8935

Observations

556 total observations over interval: 1999 01 17.32833 – 2023 01 25.393493
These data are available for download (format description).

Date (UT) J2000 RA J2000 Dec Magn Location Ref
1999 01 17.32833 08 50 28.33 +16 31 56.1 19.0 V 691 – Steward Observatory, Kitt Peak-Spacewatch MPS 196362
1999 01 17.35022 08 50 26.26 +16 31 42.8 18.5 V 691 – Steward Observatory, Kitt Peak-Spacewatch MPS 196362
2005 07 06.64118 19 52 26.47 -28 56 52.9 18.0 V E12 – Siding Spring Survey MPS 137535
2005 07 06.65742 19 52 24.85 -28 56 44.1 18.5 V E12 – Siding Spring Survey MPS 137535
2005 07 06.68979 19 52 21.64 -28 56 27.4 18.9 V E12 – Siding Spring Survey MPS 137535
2005 07 06.71700 19 52 18.99 -28 56 13.3 19.3 R 413 – Siding Spring Observatory MPS 137535
2005 07 06.71796 19 52 18.89 -28 56 12.8 19.4 R 413 – Siding Spring Observatory MPS 137535
2005 07 06.71895 19 52 18.79 -28 56 12.3 19.4 R 413 – Siding Spring Observatory MPS 137535
2005 07 06.81677 19 52 09.27 -28 55 20.0 18.7 R 413 – Siding Spring Observatory MPS 137535
2005 07 07.15317 19 51 37.87 -28 52 30.4 19.4 R I77 – CEAMIG-REA Observatory, Belo Horizonte MPS 137535
2005 07 07.15835 19 51 37.28 -28 52 25.3 19.5 R I77 – CEAMIG-REA Observatory, Belo Horizonte MPS 137535
2005 07 07.16560 19 51 36.59 -28 52 21.9 19.0 R I77 – CEAMIG-REA Observatory, Belo Horizonte MPS 137535
2005 07 07.25458 19 51 28.31 -28 51 44.4 18.5 R 734 – Farpoint Observatory, Eskridge MPS 137535
2005 07 07.25753 19 51 27.96 -28 51 42.8 18.4 R 734 – Farpoint Observatory, Eskridge MPS 137535
2005 07 07.34445 19 51 19.58 -28 50 57.3 19.1 R 854 – Sabino Canyon Observatory, Tucson MPS 137535
2005 07 07.34838 19 51 19.23 -28 50 55.8 19.1 R 854 – Sabino Canyon Observatory, Tucson MPS 137535
2005 07 07.35231 19 51 18.83 -28 50 53.9 19.1 R 854 – Sabino Canyon Observatory, Tucson MPS 137535
2005 07 08.18083 19 49 59.97 -28 43 37.4 19.0 R 734 – Farpoint Observatory, Eskridge MPS 137535
2005 07 08.18524 19 49 59.55 -28 43 34.5 18.7 R 734 – Farpoint Observatory, Eskridge MPS 137535
2005 07 08.18965 19 49 59.16 -28 43 32.1 18.5 R 734 – Farpoint Observatory, Eskridge MPS 137535
2005 07 08.31042 19 49 47.33 -28 42 28.4 19.4 R 673 – Table Mountain Observatory, Wrightwood MPS 137535
2005 07 08.31424 19 49 46.93 -28 42 26.6   673 – Table Mountain Observatory, Wrightwood MPS 137535
2005 07 08.32002 19 49 46.34 -28 42 23.4   673 – Table Mountain Observatory, Wrightwood MPS 137535
2005 07 08.32465 19 49 45.92 -28 42 21.0   673 – Table Mountain Observatory, Wrightwood MPS 137535
2005 07 08.48120 19 49 30.68 -28 40 56.0 18.5 R F65 – Haleakala-Faulkes Telescope North MPS 137535
2005 07 08.48262 19 49 30.54 -28 40 55.5   F65 – Haleakala-Faulkes Telescope North MPS 137535
2005 07 08.48395 19 49 30.41 -28 40 54.6 18.4 R F65 – Haleakala-Faulkes Telescope North MPS 137535
2006 12 21.32152 08 43 18.32 +26 29 21.9 18.9 R 699 – Lowell Observatory-LONEOS MPS 196362
2006 12 21.34712 08 43 17.05 +26 29 12.6   699 – Lowell Observatory-LONEOS MPS 196362
2006 12 21.37275 08 43 15.81 +26 29 02.3   699 – Lowell Observatory-LONEOS MPS 196362
2006 12 21.39835 08 43 14.67 +26 28 51.7   699 – Lowell Observatory-LONEOS MPS 196362
2006 12 23.43236 08 41 35.59 +26 14 43.5 19.2 V 703 – Catalina Sky Survey MPS 196362
2006 12 23.43719 08 41 35.41 +26 14 41.6 19.1 V 703 – Catalina Sky Survey MPS 196362
2006 12 23.44204 08 41 35.05 +26 14 39.2 19.4 V 703 – Catalina Sky Survey MPS 196362
2006 12 23.44691 08 41 34.87 +26 14 37.6 19.0 V 703 – Catalina Sky Survey MPS 196362
2007 01 01.48629 08 31 51.01 +25 06 47.6 18.2 R 644 – Palomar Mountain/NEAT MPS 196440
2007 01 01.50676 08 31 49.36 +25 06 37.5 18.5 R 644 – Palomar Mountain/NEAT MPS 196440
2007 01 01.52735 08 31 47.74 +25 06 27.5 18.9 R 644 – Palomar Mountain/NEAT MPS 196440
2007 01 08.29748 08 22 17.17 +24 08 45.8 19.3 V 691 – Steward Observatory, Kitt Peak-Spacewatch MPS 195599
2007 01 08.30137 08 22 16.82 +24 08 43.5 18.6 V 703 – Catalina Sky Survey MPS 195599
2007 01 08.30780 08 22 16.21 +24 08 40.7 18.3 V 703 – Catalina Sky Survey MPS 195599
2007 01 08.31425 08 22 15.60 +24 08 37.1 18.5 V 703 – Catalina Sky Survey MPS 195599
2007 01 08.31487 08 22 15.53 +24 08 36.5 19.0 V 691 – Steward Observatory, Kitt Peak-Spacewatch MPS 195599
2007 01 08.32072 08 22 14.95 +24 08 33.8 18.6 V 703 – Catalina Sky Survey MPS 195599
2007 01 08.33225 08 22 13.89 +24 08 27.3 19.1 V 691 – Steward Observatory, Kitt Peak-Spacewatch MPS 195599
2007 01 10.27221 08 19 13.92 +23 50 41.1 18.1   704 – Lincoln Laboratory ETS, New Mexico MPS 195599
2007 01 10.28523 08 19 12.64 +23 50 33.6 18.4   704 – Lincoln Laboratory ETS, New Mexico MPS 195599
2007 01 10.29807 08 19 11.43 +23 50 26.6 18.6   704 – Lincoln Laboratory ETS, New Mexico MPS 195599
2007 01 13.25378 08 14 26.82 +23 22 14.0 18.9   704 – Lincoln Laboratory ETS, New Mexico MPS 196440
2007 01 13.26663 08 14 25.43 +23 22 07.0 19.5   704 – Lincoln Laboratory ETS, New Mexico MPS 196440
2007 01 13.27939 08 14 24.25 +23 21 59.3 19.1   704 – Lincoln Laboratory ETS, New Mexico MPS 196440
2007 01 13.29295 08 14 22.88 +23 21 51.5 19.4   704 – Lincoln Laboratory ETS, New Mexico MPS 196440
2007 01 13.30667 08 14 21.42 +23 21 44.1 19.0   704 – Lincoln Laboratory ETS, New Mexico MPS 196440
2007 01 14.26848 08 12 46.68 +23 12 15.5 18.3   704 – Lincoln Laboratory ETS, New Mexico MPS 196440
2007 01 14.28178 08 12 45.34 +23 12 06.8 18.5   704 – Lincoln Laboratory ETS, New Mexico MPS 196440
2007 01 14.29482 08 12 44.04 +23 11 58.8 18.7   704 – Lincoln Laboratory ETS, New Mexico MPS 196440
2007 01 15.21066 08 11 13.23 +23 02 50.6 18.2 V 703 – Catalina Sky Survey MPS 196440
2007 01 15.22053 08 11 12.22 +23 02 45.2 18.4 V 703 – Catalina Sky Survey MPS 196440
2007 01 15.23046 08 11 11.18 +23 02 38.5 18.7 V 703 – Catalina Sky Survey MPS 196440
2007 01 15.24038 08 11 10.17 +23 02 32.8 18.7 V 703 – Catalina Sky Survey MPS 196440
2007 01 15.27345 08 11 06.80 +23 02 13.5 18.3 R 699 – Lowell Observatory-LONEOS MPS 196440
2007 01 15.29620 08 11 04.37 +23 02 01.1 18.8   704 – Lincoln Laboratory ETS, New Mexico MPS 196440
2007 01 15.29907 08 11 04.14 +23 01 57.8   699 – Lowell Observatory-LONEOS MPS 196440
2007 01 15.31047 08 11 02.91 +23 01 51.7 18.9   704 – Lincoln Laboratory ETS, New Mexico MPS 196440
2007 01 15.32396 08 11 01.45 +23 01 42.8 18.3   704 – Lincoln Laboratory ETS, New Mexico MPS 196440
2007 01 15.32466 08 11 01.46 +23 01 42.7   699 – Lowell Observatory-LONEOS MPS 196440
2007 01 16.23236 08 09 30.89 +22 52 31.5 18.7   704 – Lincoln Laboratory ETS, New Mexico MPS 196440
2007 01 16.24485 08 09 29.59 +22 52 24.0 18.6   704 – Lincoln Laboratory ETS, New Mexico MPS 196440
2007 01 16.25731 08 09 28.31 +22 52 16.3 18.5   704 – Lincoln Laboratory ETS, New Mexico MPS 196440
2007 01 16.26977 08 09 27.01 +22 52 08.7 18.7   704 – Lincoln Laboratory ETS, New Mexico MPS 196440
2007 01 16.28224 08 09 25.77 +22 51 59.5 19.6   704 – Lincoln Laboratory ETS, New Mexico MPS 196440
2007 01 17.19056 08 07 54.56 +22 42 41.2 18.7 V 691 – Steward Observatory, Kitt Peak-Spacewatch MPS 197055
2007 01 17.20793 08 07 52.76 +22 42 30.8 18.9 V 691 – Steward Observatory, Kitt Peak-Spacewatch MPS 197055
2007 01 17.22531 08 07 50.96 +22 42 20.3 19.1 V 691 – Steward Observatory, Kitt Peak-Spacewatch MPS 197055
2007 01 17.29345 08 07 43.91 +22 41 38.3 17.7 R 644 – Palomar Mountain/NEAT MPS 197055
2007 01 17.31502 08 07 41.66 +22 41 25.2 17.7 R 644 – Palomar Mountain/NEAT MPS 197055
2007 01 17.33542 08 07 39.53 +22 41 12.4 17.7 R 644 – Palomar Mountain/NEAT MPS 197055
2007 01 18.38477 08 05 53.30 +22 30 17.2 17.7 R 644 – Palomar Mountain/NEAT MPS 197055
2007 01 18.40752 08 05 50.88 +22 30 02.6 17.6 R 644 – Palomar Mountain/NEAT MPS 197055
2007 01 18.42911 08 05 48.65 +22 29 49.3 17.8 R 644 – Palomar Mountain/NEAT MPS 197055
2007 01 19.33780 08 04 16.96 +22 20 15.4 18.2 R 699 – Lowell Observatory-LONEOS MPS 196362
2007 01 19.35973 08 04 14.65 +22 20 00.7   699 – Lowell Observatory-LONEOS MPS 196362
2007 01 19.38167 08 04 12.34 +22 19 46.9   699 – Lowell Observatory-LONEOS MPS 196362
2007 01 21.26728 08 01 02.09 +21 59 34.4 18.1   704 – Lincoln Laboratory ETS, New Mexico MPS 197055
2007 01 21.27951 08 01 00.81 +21 59 26.7 18.4   704 – Lincoln Laboratory ETS, New Mexico MPS 197055
2007 01 21.29174 08 00 59.58 +21 59 19.2 18.4   704 – Lincoln Laboratory ETS, New Mexico MPS 197055
